« Back
NWS Peachtree City, Ga » Text Product » CSG Terminal Aerodrome Forecast


Printer-friendly Version
Current Version              Previous Versions:   1  2  3  4  5  6  7  8  9  

Terminal Aerodrome Forecast

222
FTUS42 KFFC 052145 AAA
TAFCSG
TAF AMD
KCSG 052145Z 0522/0618 33018G28KT P6SM BKN070
     FM060200 34009KT P6SM SCT060
     FM060600 32008KT P6SM SKC
     FM061300 33013G23KT P6SM SKC=

USA.gov is the U.S. government's official web portal to all federal, state and local government web resources and services.